| time (UTC) | temp F | wind direction | speed MPH | gust MPH | rain 1hr in | rain 24hr in | rain mn in | humidity % | barometer mb |
| 20260503024510 | 65 | 147 | 0.0 | 0.0 | 0.00 | 0.00 | 0.00 | 29 | 1011.9 |
| 20260503024002 | 66 | 147 | 0.0 | 0.0 | 0.00 | 0.00 | 0.00 | 29 | 1011.9 |
| 20260503023506 | 66 | 147 | 0.0 | 0.0 | 0.00 | 0.00 | 0.00 | 29 | 1011.9 |
| 20260503023014 | 66 | 147 | 0.0 | 0.0 | 0.00 | 0.00 | 0.00 | 31 | 1011.9 |
| 20260503022505 | 66 | 147 | 0.0 | 0.0 | 0.00 | 0.00 | 0.00 | 28 | 1011.8 |
| 20260503022008 | 66 | 147 | 0.0 | 0.0 | 0.00 | 0.00 | 0.00 | 29 | 1011.8 |
| 20260503021525 | 66 | 147 | 0.0 | 0.0 | 0.00 | 0.00 | 0.00 | 29 | 1011.9 |
| 20260503021005 | 67 | 147 | 0.0 | 0.0 | 0.00 | 0.00 | 0.00 | 28 | 1011.8 |
| 20260503020507 | 67 | 147 | 0.0 | 1.0 | 0.00 | 0.00 | 0.00 | 27 | 1011.9 |
| 20260503020025 | 67 | 147 | 0.0 | 1.0 | 0.00 | 0.00 | 0.00 | 27 | 1011.9 |
| 20260503015507 | 67 | 141 | 0.0 | 1.0 | 0.00 | 0.00 | 0.00 | 27 | 1011.9 |
| 20260503015009 | 68 | 141 | 0.0 | 1.0 | 0.00 | 0.00 | 0.00 | 26 | 1012.0 |
| 20260503014529 | 69 | 141 | 0.0 | 2.0 | 0.00 | 0.00 | 0.00 | 26 | 1011.9 |
| 20260503014009 | 69 | 149 | 0.0 | 3.0 | 0.00 | 0.00 | 0.00 | 25 | 1012.0 |
| 20260503013510 | 70 | 96 | 1.0 | 3.0 | 0.00 | 0.00 | 0.00 | 24 | 1012.1 |
| 20260503013013 | 71 | 159 | 0.0 | 3.0 | 0.00 | 0.00 | 0.00 | 26 | 1012.2 |
| 20260503012503 | 70 | 195 | 0.0 | 3.0 | 0.00 | 0.00 | 0.00 | 25 | 1012.3 |
| 20260503012006 | 69 | 185 | 2.0 | 4.0 | 0.00 | 0.00 | 0.00 | 25 | 1012.4 |
| 20260503011516 | 69 | 223 | 2.0 | 5.0 | 0.00 | 0.00 | 0.00 | 26 | 1012.4 |
| 20260503011012 | 69 | 229 | 2.0 | 6.0 | 0.00 | 0.00 | 0.00 | 26 | 1012.5 |
| 20260503010512 | 69 | 212 | 3.0 | 6.0 | 0.00 | 0.00 | 0.00 | 26 | 1012.6 |
| 20260503010021 | 70 | 206 | 3.0 | 6.0 | 0.00 | 0.00 | 0.00 | 25 | 1012.5 |
| 20260503005507 | 70 | 176 | 2.0 | 5.0 | 0.00 | 0.00 | 0.00 | 25 | 1012.7 |
| 20260503005007 | 70 | 220 | 2.0 | 5.0 | 0.00 | 0.00 | 0.00 | 25 | 1012.7 |
| 20260503004549 | 69 | 227 | 1.0 | 5.0 | 0.00 | 0.00 | 0.00 | 25 | 1012.8 |
| 20260503004010 | 69 | 261 | 2.0 | 10.0 | 0.00 | 0.00 | 0.00 | 25 | 1012.9 |
| 20260503003509 | 69 | 203 | 4.0 | 10.0 | 0.00 | 0.00 | 0.00 | 25 | 1013.0 |
| 20260503003028 | 70 | 215 | 4.0 | 10.0 | 0.00 | 0.00 | 0.00 | 24 | 1013.1 |
| 20260503002510 | 70 | 164 | 2.0 | 8.0 | 0.00 | 0.00 | 0.00 | 26 | 1013.1 |
| 20260503002013 | 70 | 203 | 2.0 | 8.0 | 0.00 | 0.00 | 0.00 | 26 | 1013.2 |
| 20260503001526 | 70 | 154 | 2.0 | 8.0 | 0.00 | 0.00 | 0.00 | 27 | 1013.3 |
| 20260503001006 | 69 | 210 | 3.0 | 10.0 | 0.00 | 0.00 | 0.00 | 26 | 1013.3 |
| 20260503000507 | 70 | 244 | 6.0 | 11.0 | 0.00 | 0.00 | 0.00 | 25 | 1013.4 |
| 20260503000029 | 70 | 224 | 4.0 | 11.0 | 0.00 | 0.00 | 0.00 | 26 | 1013.4 |
| 20260502235502 | 70 | 218 | 4.0 | 10.0 | 0.00 | 0.00 | 0.00 | 25 | 1013.6 |
| 20260502235002 | 69 | 260 | 2.0 | 7.0 | 0.00 | 0.00 | 0.00 | 26 | 1013.6 |
| 20260502234504 | 70 | 306 | 4.0 | 7.0 | 0.00 | 0.00 | 0.00 | 25 | 1013.7 |
| 20260502234004 | 70 | 219 | 2.0 | 10.0 | 0.00 | 0.00 | 0.00 | 26 | 1013.7 |
| 20260502233504 | 70 | 250 | 4.0 | 10.0 | 0.00 | 0.00 | 0.00 | 26 | 1013.8 |
| 20260502233008 | 70 | 142 | 1.0 | 6.0 | 0.00 | 0.00 | 0.00 | 28 | 1013.9 |
| 20260502232503 | 69 | 238 | 3.0 | 9.0 | 0.00 | 0.00 | 0.00 | 28 | 1014.0 |
| 20260502232003 | 69 | 266 | 4.0 | 9.0 | 0.00 | 0.00 | 0.00 | 28 | 1014.0 |
| 20260502231509 | 69 | 285 | 3.0 | 7.0 | 0.00 | 0.00 | 0.00 | 28 | 1014.0 |
| 20260502231005 | 69 | 242 | 3.0 | 8.0 | 0.00 | 0.00 | 0.00 | 29 | 1014.1 |
| 20260502230504 | 69 | 297 | 2.0 | 8.0 | 0.00 | 0.00 | 0.00 | 27 | 1014.1 |
| 20260502230016 | 68 | 232 | 3.0 | 8.0 | 0.00 | 0.00 | 0.00 | 27 | 1014.3 |
| 20260502225508 | 68 | 256 | 4.0 | 8.0 | 0.00 | 0.00 | 0.00 | 28 | 1014.3 |
| 20260502225008 | 68 | 234 | 2.0 | 11.0 | 0.00 | 0.00 | 0.00 | 28 | 1014.4 |
| 20260502224519 | 68 | 250 | 6.0 | 11.0 | 0.00 | 0.00 | 0.00 | 27 | 1014.5 |
| 20260502224007 | 68 | 219 | 4.0 | 9.0 | 0.00 | 0.00 | 0.00 | 28 | 1014.6 |
| 20260502223503 | 68 | 219 | 4.0 | 7.0 | 0.00 | 0.00 | 0.00 | 29 | 1014.7 |
| 20260502223006 | 68 | 136 | 0.0 | 4.0 | 0.00 | 0.00 | 0.00 | 30 | 1014.8 |
| 20260502222504 | 67 | 348 | 1.0 | 5.0 | 0.00 | 0.00 | 0.00 | 30 | 1014.9 |
| 20260502222005 | 67 | 286 | 1.0 | 10.0 | 0.00 | 0.00 | 0.00 | 30 | 1015.0 |
| 20260502221508 | 67 | 232 | 4.0 | 11.0 | 0.00 | 0.00 | 0.00 | 30 | 1015.2 |
| 20260502221004 | 68 | 183 | 3.0 | 11.0 | 0.00 | 0.00 | 0.00 | 30 | 1015.2 |
| 20260502220503 | 68 | 276 | 5.0 | 9.0 | 0.00 | 0.00 | 0.00 | 29 | 1015.3 |
| 20260502220013 | 67 | 175 | 2.0 | 6.0 | 0.00 | 0.00 | 0.00 | 30 | 1015.3 |
| 20260502215506 | 68 | 86 | 3.0 | 6.0 | 0.00 | 0.00 | 0.00 | 29 | 1015.3 |
| 20260502215007 | 67 | 215 | 1.0 | 7.0 | 0.00 | 0.00 | 0.00 | 30 | 1015.4 |
| 20260502214518 | 67 | 187 | 3.0 | 11.0 | 0.00 | 0.00 | 0.00 | 30 | 1015.4 |
| 20260502214007 | 67 | 202 | 4.0 | 13.0 | 0.00 | 0.00 | 0.00 | 30 | 1015.4 |
| 20260502213508 | 67 | 214 | 6.0 | 13.0 | 0.00 | 0.00 | 0.00 | 30 | 1015.6 |
| 20260502213036 | 67 | 238 | 3.0 | 6.0 | 0.00 | 0.00 | 0.00 | 30 | 1015.6 |
| 20260502212507 | 67 | 133 | 3.0 | 7.0 | 0.00 | 0.00 | 0.00 | 29 | 1015.7 |
| 20260502212008 | 67 | 243 | 3.0 | 8.0 | 0.00 | 0.00 | 0.00 | 31 | 1015.8 |
| 20260502211507 | 67 | 214 | 4.0 | 8.0 | 0.00 | 0.00 | 0.00 | 30 | 1016.0 |
| 20260502211004 | 67 | 291 | 4.0 | 8.0 | 0.00 | 0.00 | 0.00 | 30 | 1016.1 |
| 20260502210502 | 66 | 199 | 3.0 | 11.0 | 0.00 | 0.00 | 0.00 | 30 | 1016.2 |
| 20260502210010 | 66 | 228 | 3.0 | 11.0 | 0.00 | 0.00 | 0.00 | 30 | 1016.3 |
| 20260502205504 | 66 | 272 | 1.0 | 8.0 | 0.00 | 0.00 | 0.00 | 31 | 1016.3 |
| 20260502205004 | 66 | 212 | 2.0 | 6.0 | 0.00 | 0.00 | 0.00 | 31 | 1016.4 |
| 20260502204514 | 65 | 207 | 2.0 | 11.0 | 0.00 | 0.00 | 0.00 | 30 | 1016.5 |
| 20260502204007 | 65 | 272 | 5.0 | 11.0 | 0.00 | 0.00 | 0.00 | 31 | 1016.5 |
| 20260502203504 | 66 | 223 | 4.0 | 8.0 | 0.00 | 0.00 | 0.00 | 30 | 1016.6 |
| 20260502203019 | 65 | 288 | 5.0 | 8.0 | 0.00 | 0.00 | 0.00 | 32 | 1016.6 |
| 20260502202507 | 65 | 245 | 4.0 | 8.0 | 0.00 | 0.00 | 0.00 | 31 | 1016.7 |
| 20260502202007 | 65 | 56 | 1.0 | 6.0 | 0.00 | 0.00 | 0.00 | 31 | 1016.8 |
| 20260502201530 | 65 | 238 | 2.0 | 9.0 | 0.00 | 0.00 | 0.00 | 31 | 1016.8 |
| 20260502201006 | 65 | 288 | 3.0 | 9.0 | 0.00 | 0.00 | 0.00 | 31 | 1016.9 |
| 20260502200512 | 66 | 227 | 4.0 | 9.0 | 0.00 | 0.00 | 0.00 | 31 | 1016.9 |
| 20260502200026 | 65 | 170 | 2.0 | 7.0 | 0.00 | 0.00 | 0.00 | 33 | 1017.0 |
| 20260502195504 | 65 | 260 | 3.0 | 8.0 | 0.00 | 0.00 | 0.00 | 32 | 1017.1 |
| 20260502195004 | 64 | 206 | 2.0 | 11.0 | 0.00 | 0.00 | 0.00 | 33 | 1017.1 |
| 20260502194513 | 64 | 226 | 4.0 | 11.0 | 0.00 | 0.00 | 0.00 | 33 | 1017.2 |
| 20260502194007 | 64 | 248 | 6.0 | 10.0 | 0.00 | 0.00 | 0.00 | 32 | 1017.3 |
| 20260502193507 | 64 | 318 | 2.0 | 4.0 | 0.00 | 0.00 | 0.00 | 33 | 1017.4 |
| 20260502193016 | 64 | 268 | 2.0 | 9.0 | 0.00 | 0.00 | 0.00 | 33 | 1017.5 |
| 20260502192508 | 64 | 277 | 3.0 | 10.0 | 0.00 | 0.00 | 0.00 | 32 | 1017.6 |
| 20260502192007 | 65 | 223 | 5.0 | 10.0 | 0.00 | 0.00 | 0.00 | 33 | 1017.7 |
| 20260502191523 | 64 | 162 | 4.0 | 8.0 | 0.00 | 0.00 | 0.00 | 33 | 1017.7 |
| 20260502191010 | 64 | 233 | 2.0 | 8.0 | 0.00 | 0.00 | 0.00 | 33 | 1017.9 |
| 20260502190508 | 64 | 230 | 3.0 | 9.0 | 0.00 | 0.00 | 0.00 | 33 | 1018.1 |
| 20260502190026 | 63 | 211 | 5.0 | 9.0 | 0.00 | 0.00 | 0.00 | 34 | 1018.2 |
| 20260502185507 | 63 | 221 | 1.0 | 3.0 | 0.00 | 0.00 | 0.00 | 36 | 1018.3 |
| 20260502185008 | 63 | 36 | 2.0 | 8.0 | 0.00 | 0.00 | 0.00 | 34 | 1018.3 |
| 20260502184526 | 63 | 233 | 3.0 | 8.0 | 0.00 | 0.00 | 0.00 | 36 | 1018.4 |
| 20260502184008 | 63 | 122 | 5.0 | 12.0 | 0.00 | 0.00 | 0.00 | 35 | 1018.4 |
| 20260502183504 | 62 | 262 | 2.0 | 12.0 | 0.00 | 0.00 | 0.00 | 36 | 1018.5 |
| 20260502183014 | 62 | 271 | 2.0 | 8.0 | 0.00 | 0.00 | 0.00 | 35 | 1018.6 |
| 20260502182504 | 63 | 129 | 4.0 | 8.0 | 0.00 | 0.00 | 0.00 | 34 | 1018.7 |
| 20260502182007 | 62 | 122 | 2.0 | 8.0 | 0.00 | 0.00 | 0.00 | 36 | 1018.7 |
| 20260502181520 | 61 | 105 | 1.0 | 3.0 | 0.00 | 0.00 | 0.00 | 35 | 1018.8 |
| 20260502181007 | 61 | 230 | 2.0 | 9.0 | 0.00 | 0.00 | 0.00 | 36 | 1018.9 |
| 20260502180508 | 61 | 250 | 5.0 | 9.0 | 0.00 | 0.00 | 0.00 | 35 | 1019.0 |
| 20260502170507 | 59 | 143 | 2.0 | 6.0 | 0.00 | 0.00 | 0.00 | 39 | 1019.7 |
| 20260502164012 | 59 | 64 | 1.0 | 4.0 | 0.00 | 0.00 | 0.00 | 38 | 1019.9 |
| 20260502163508 | 59 | 136 | 2.0 | 3.0 | 0.00 | 0.00 | 0.00 | 37 | 1020.0 |
| 20260502163011 | 59 | 214 | 1.0 | 4.0 | 0.00 | 0.00 | 0.00 | 39 | 1020.1 |
| 20260502162504 | 59 | 143 | 1.0 | 4.0 | 0.00 | 0.00 | 0.00 | 40 | 1020.2 |
| 20260502162009 | 59 | 227 | 2.0 | 4.0 | 0.00 | 0.00 | 0.00 | 40 | 1020.3 |
| 20260502161511 | 59 | 236 | 0.0 | 4.0 | 0.00 | 0.00 | 0.00 | 42 | 1020.3 |
| 20260502161005 | 59 | 86 | 1.0 | 4.0 | 0.00 | 0.00 | 0.00 | 40 | 1020.3 |
| 20260502160504 | 58 | 202 | 2.0 | 5.0 | 0.00 | 0.00 | 0.00 | 44 | 1020.3 |
| 20260502152009 | 54 | 204 | 1.0 | 3.0 | 0.00 | 0.00 | 0.00 | 57 | 1020.3 |
| 20260502151525 | 54 | 184 | 1.0 | 2.0 | 0.00 | 0.00 | 0.00 | 57 | 1020.5 |
| 20260502151002 | 53 | 182 | 1.0 | 2.0 | 0.00 | 0.00 | 0.00 | 58 | 1020.5 |
| 20260502150502 | 52 | 166 | 0.0 | 3.0 | 0.00 | 0.00 | 0.00 | 59 | 1020.5 |
| 20260502130507 | 41 | 163 | 0.0 | 1.0 | 0.00 | 0.00 | 0.00 | 73 | 1020.6 |
| 20260502123510 | 37 | 127 | 0.0 | 1.0 | 0.00 | 0.00 | 0.00 | 79 | 1020.5 |
| 20260502123016 | 37 | 164 | 0.0 | 0.0 | 0.00 | 0.00 | 0.00 | 80 | 1020.4 |
| 20260502122506 | 37 | 178 | 0.0 | 0.0 | 0.00 | 0.00 | 0.00 | 80 | 1020.5 |
| 20260502122010 | 36 | 178 | 0.0 | 2.0 | 0.00 | 0.00 | 0.00 | 80 | 1020.5 |
| 20260502121522 | 36 | 205 | 0.0 | 2.0 | 0.00 | 0.00 | 0.00 | 81 | 1020.5 |
| 20260502121010 | 36 | 186 | 0.0 | 0.0 | 0.00 | 0.00 | 0.00 | 81 | 1020.4 |
| 20260502120511 | 36 | 186 | 0.0 | 1.0 | 0.00 | 0.00 | 0.00 | 81 | 1020.4 |
| 20260502115501 | 36 | 158 | 0.0 | 1.0 | 0.00 | 0.00 | 0.00 | 81 | 1020.4 |
| 20260502115003 | 36 | 153 | 0.0 | 1.0 | 0.00 | 0.00 | 0.00 | 82 | 1020.5 |
| 20260502114504 | 36 | 151 | 0.0 | 1.0 | 0.00 | 0.00 | 0.00 | 82 | 1020.4 |
| 20260502114002 | 36 | 161 | 0.0 | 0.0 | 0.00 | 0.00 | 0.00 | 81 | 1020.3 |
| 20260502113505 | 36 | 143 | 0.0 | 0.0 | 0.00 | 0.00 | 0.00 | 81 | 1020.3 |
| 20260502113004 | 36 | 143 | 0.0 | 0.0 | 0.00 | 0.00 | 0.00 | 81 | 1020.3 |
| 20260502112502 | 36 | 143 | 0.0 | 0.0 | 0.00 | 0.00 | 0.00 | 80 | 1020.2 |
| 20260502112001 | 36 | 143 | 0.0 | 0.0 | 0.00 | 0.00 | 0.00 | 80 | 1020.3 |
| 20260502111503 | 36 | 143 | 0.0 | 0.0 | 0.00 | 0.00 | 0.00 | 80 | 1020.3 |
| 20260502111003 | 36 | 143 | 0.0 | 0.0 | 0.00 | 0.00 | 0.00 | 79 | 1020.3 |
| 20260502110502 | 36 | 143 | 0.0 | 0.0 | 0.00 | 0.00 | 0.00 | 79 | 1020.3 |
| 20260502110003 | 37 | 143 | 0.0 | 0.0 | 0.00 | 0.00 | 0.00 | 79 | 1020.2 |
| 20260502105503 | 37 | 144 | 0.0 | 0.0 | 0.00 | 0.00 | 0.00 | 79 | 1020.3 |
| 20260502105003 | 37 | 192 | 0.0 | 0.0 | 0.00 | 0.00 | 0.00 | 78 | 1020.3 |
| 20260502104504 | 37 | 192 | 0.0 | 0.0 | 0.00 | 0.00 | 0.00 | 77 | 1020.3 |
| 20260502104002 | 37 | 192 | 0.0 | 0.0 | 0.00 | 0.00 | 0.00 | 76 | 1020.3 |
| 20260502103502 | 38 | 192 | 0.0 | 0.0 | 0.00 | 0.00 | 0.00 | 76 | 1020.3 |
| 20260502103011 | 38 | 192 | 0.0 | 0.0 | 0.00 | 0.00 | 0.00 | 76 | 1020.2 |
| 20260502102502 | 38 | 193 | 0.0 | 0.0 | 0.00 | 0.00 | 0.00 | 76 | 1020.2 |
| 20260502102002 | 38 | 193 | 0.0 | 0.0 | 0.00 | 0.00 | 0.00 | 77 | 1020.1 |
| 20260502101504 | 38 | 193 | 0.0 | 0.0 | 0.00 | 0.00 | 0.00 | 78 | 1020.1 |
| 20260502101002 | 38 | 193 | 0.0 | 0.0 | 0.00 | 0.00 | 0.00 | 78 | 1020.0 |
| 20260502100503 | 37 | 193 | 0.0 | 0.0 | 0.00 | 0.00 | 0.00 | 78 | 1019.9 |
| 20260502091506 | 39 | 62 | 0.0 | 0.0 | 0.00 | 0.00 | 0.00 | 75 | 1019.9 |
| 20260502091003 | 39 | 62 | 0.0 | 1.0 | 0.00 | 0.00 | 0.00 | 74 | 1019.9 |
| 20260502090505 | 39 | 63 | 0.0 | 1.0 | 0.00 | 0.00 | 0.00 | 74 | 1019.9 |
| 20260502071505 | 44 | 340 | 0.0 | 0.0 | 0.00 | 0.00 | 0.00 | 66 | 1019.6 |
| 20260502071003 | 44 | 340 | 0.0 | 0.0 | 0.00 | 0.00 | 0.00 | 65 | 1019.4 |
| 20260502070503 | 45 | 340 | 0.0 | 0.0 | 0.00 | 0.00 | 0.00 | 64 | 1019.4 |
| 20260502070004 | 45 | 340 | 0.0 | 1.0 | 0.00 | 0.00 | 0.00 | 64 | 1019.4 |
| 20260502065502 | 46 | 340 | 0.0 | 1.0 | 0.00 | 0.00 | 0.00 | 63 | 1019.4 |
| 20260502065002 | 46 | 340 | 0.0 | 1.0 | 0.00 | 0.00 | 0.00 | 63 | 1019.4 |
| 20260502064517 | 47 | 340 | 0.0 | 1.0 | 0.00 | 0.00 | 0.00 | 62 | 1019.4 |
| 20260502064004 | 47 | 340 | 0.0 | 1.0 | 0.00 | 0.00 | 0.00 | 62 | 1019.3 |
| 20260502063502 | 47 | 329 | 0.0 | 3.0 | 0.00 | 0.00 | 0.00 | 61 | 1019.3 |
| 20260502063006 | 48 | 329 | 1.0 | 3.0 | 0.00 | 0.00 | 0.00 | 61 | 1019.3 |
| 20260502062504 | 48 | 317 | 1.0 | 3.0 | 0.00 | 0.00 | 0.00 | 61 | 1019.3 |
| 20260502062004 | 48 | 319 | 1.0 | 3.0 | 0.00 | 0.00 | 0.00 | 60 | 1019.3 |
| 20260502061508 | 48 | 6 | 1.0 | 3.0 | 0.00 | 0.00 | 0.00 | 60 | 1019.3 |
| 20260502061003 | 48 | 307 | 1.0 | 2.0 | 0.00 | 0.00 | 0.00 | 60 | 1019.4 |
| 20260502060502 | 49 | 285 | 1.0 | 2.0 | 0.00 | 0.00 | 0.00 | 60 | 1019.3 |
| 20260502060008 | 49 | 298 | 0.0 | 2.0 | 0.00 | 0.00 | 0.00 | 59 | 1019.2 |
| 20260502055502 | 49 | 299 | 0.0 | 2.0 | 0.00 | 0.00 | 0.00 | 59 | 1019.1 |
| 20260502055003 | 50 | 319 | 0.0 | 3.0 | 0.00 | 0.00 | 0.00 | 58 | 1019.1 |
| 20260502054508 | 50 | 317 | 1.0 | 3.0 | 0.00 | 0.00 | 0.00 | 58 | 1019.1 |
| 20260502054004 | 50 | 310 | 1.0 | 3.0 | 0.00 | 0.00 | 0.00 | 58 | 1019.0 |
| 20260502053503 | 50 | 290 | 1.0 | 3.0 | 0.00 | 0.00 | 0.00 | 57 | 1019.1 |
| 20260502053009 | 51 | 297 | 2.0 | 4.0 | 0.00 | 0.00 | 0.00 | 57 | 1018.9 |
| 20260502052505 | 51 | 284 | 2.0 | 4.0 | 0.00 | 0.00 | 0.00 | 56 | 1018.9 |
| 20260502052007 | 51 | 298 | 1.0 | 4.0 | 0.00 | 0.00 | 0.00 | 56 | 1018.8 |
| 20260502051508 | 52 | 337 | 2.0 | 4.0 | 0.00 | 0.00 | 0.00 | 55 | 1018.8 |
| 20260502051002 | 52 | 262 | 1.0 | 2.0 | 0.00 | 0.00 | 0.00 | 55 | 1018.7 |
| 20260502050502 | 52 | 274 | 0.0 | 4.0 | 0.00 | 0.00 | 0.00 | 54 | 1018.6 |
| 20260502050019 | 53 | 280 | 2.0 | 5.0 | 0.00 | 0.00 | 0.00 | 53 | 1018.6 |
| 20260502045504 | 53 | 301 | 2.0 | 5.0 | 0.00 | 0.00 | 0.00 | 53 | 1018.6 |
| 20260502045006 | 53 | 285 | 2.0 | 5.0 | 0.00 | 0.00 | 0.00 | 53 | 1018.6 |
| 20260502044510 | 53 | 262 | 2.0 | 4.0 | 0.00 | 0.00 | 0.00 | 53 | 1018.6 |
| 20260502044007 | 53 | 260 | 1.0 | 4.0 | 0.00 | 0.00 | 0.00 | 53 | 1018.5 |
| 20260502043503 | 53 | 262 | 1.0 | 3.0 | 0.00 | 0.00 | 0.00 | 53 | 1018.5 |
| 20260502043012 | 54 | 264 | 1.0 | 5.0 | 0.00 | 0.00 | 0.00 | 53 | 1018.5 |
| 20260502042503 | 54 | 265 | 2.0 | 5.0 | 0.00 | 0.00 | 0.00 | 52 | 1018.4 |
| 20260502042010 | 54 | 271 | 2.0 | 5.0 | 0.00 | 0.00 | 0.00 | 52 | 1018.4 |
| 20260502041511 | 54 | 271 | 2.0 | 5.0 | 0.00 | 0.00 | 0.00 | 52 | 1018.4 |
| 20260502041003 | 54 | 283 | 2.0 | 5.0 | 0.00 | 0.00 | 0.00 | 52 | 1018.4 |
| 20260502040503 | 54 | 290 | 2.0 | 5.0 | 0.00 | 0.00 | 0.00 | 52 | 1018.4 |
| 20260502040015 | 54 | 276 | 3.0 | 5.0 | 0.00 | 0.00 | 0.00 | 52 | 1018.3 |
| 20260502035503 | 54 | 273 | 2.0 | 5.0 | 0.00 | 0.00 | 0.00 | 52 | 1018.3 |
| 20260502035007 | 53 | 279 | 2.0 | 4.0 | 0.00 | 0.00 | 0.00 | 53 | 1018.2 |
| 20260502034512 | 53 | 259 | 1.0 | 4.0 | 0.00 | 0.00 | 0.00 | 53 | 1018.1 |
| 20260502034005 | 54 | 264 | 2.0 | 4.0 | 0.00 | 0.00 | 0.00 | 52 | 1018.1 |
| 20260502033504 | 54 | 260 | 2.0 | 3.0 | 0.00 | 0.00 | 0.00 | 52 | 1018.1 |
| 20260502033011 | 54 | 245 | 1.0 | 2.0 | 0.00 | 0.00 | 0.00 | 52 | 1018.0 |
| 20260502032504 | 54 | 240 | 1.0 | 3.0 | 0.00 | 0.00 | 0.00 | 52 | 1017.9 |
| 20260502032008 | 54 | 250 | 1.0 | 3.0 | 0.00 | 0.00 | 0.00 | 51 | 1017.8 |
| 20260502031512 | 54 | 245 | 1.0 | 1.0 | 0.00 | 0.00 | 0.00 | 52 | 1017.7 |
| 20260502031004 | 54 | 316 | 0.0 | 0.0 | 0.00 | 0.00 | 0.00 | 52 | 1017.6 |
| 20260502030504 | 54 | 316 | 0.0 | 0.0 | 0.00 | 0.00 | 0.00 | 52 | 1017.6 |
| 20260502030016 | 55 | 316 | 0.0 | 0.0 | 0.00 | 0.00 | 0.00 | 52 | 1017.7 |
| 20260502025503 | 55 | 316 | 0.0 | 1.0 | 0.00 | 0.00 | 0.00 | 51 | 1017.7 |
| 20260502025008 | 55 | 318 | 0.0 | 1.0 | 0.00 | 0.00 | 0.00 | 52 | 1017.6 |